Location: Czu?�w
(50.1404°N, 18.9919°E)
Time: 11:34:35
(UTC+00:00)

Cosmos 1408 - Pass Details

Date: 27 October 2020
Orbit: 470 x 492 km, 82.6° (Epoch: 24 November)

Event Time Altitude Azimuth Distance (km) Brightness Sun altitude
Rises 17:28:41 0° 348° (NNW) 2,553 6.4 -19.7°
Reaches altitude 10° 17:30:47 10° 347° (NNW) 1,673 5.5 -20.1°
Maximum altitude 17:34:26 75° 263° (W) 508 2.7 -20.7°
Enters shadow 17:36:50 20° 179° (S) 1,160 4.4 -21.0°
